Location: Krzykow
(51.1188°N, 17.7112°E)
Time: 20:43:13
(UTC+01:00)

ISS - Visible Passes

Search period start: 18 January 2018 00:00
Search period end: 28 January 2018 00:00
Orbit: 402 x 407 km, 51.6° (Epoch: 18 January)

Date Brightness Start Highest point End Pass type
(mag) Time Alt. Az. Time Alt. Az. Time Alt. Az.
26 Jan -1.4 18:55:20 10° SSW 18:56:18 16° SSW 18:56:18 16° SSW visible
27 Jan -2.0 18:03:41 10° S 18:05:58 18° SE 18:06:18 18° SE visible
27 Jan -0.5 19:38:46 10° WSW 19:38:58 11° WSW 19:38:58 11° WSW visible
